FW5910 Weather Reports


Display with metric or nautical units.
time (UTC)temp
F
wind
direction
speed
MPH
gust
MPH
rain 1hr
in
rain 24hr
in
rain mn
in
humidity
%
barometer
mb
20260503020229 65 120 0.0 1.0 0.00 0.00 0.00 47 1013.6
20260503015730 65 132 0.0 1.0 0.00 0.00 0.00 45 1013.7
20260503014733 65 177 0.0 1.0 0.00 0.00 0.00 43 1013.7
20260503014229 66 221 0.0 0.0 0.00 0.00 0.00 44 1013.7
20260503013729 67 232 0.0 1.0 0.00 0.00 0.00 43 1013.7
20260503013229 67 232 0.0 1.0 0.00 0.00 0.00 42 1013.7
20260503012730 68 225 0.0 2.0 0.00 0.00 0.00 42 1013.7
20260503012229 70 225 0.0 2.0 0.00 0.00 0.00 43 1013.7
20260503011728 71 306 0.0 0.0 0.00 0.00 0.00 40 1013.6
20260503011229 72 306 0.0 0.0 0.00 0.00 0.00 39 1013.7
20260503010729 72 306 0.0 0.0 0.00 0.00 0.00 38 1013.6
20260503010232 70 306 0.0 1.0 0.00 0.00 0.00 38 1013.7
20260503005731 69 306 0.0 1.0 0.00 0.00 0.00 37 1013.8
20260503005232 70 95 0.0 1.0 0.00 0.00 0.00 39 1013.8
20260503004230 70 94 0.0 1.0 0.00 0.00 0.00 41 1013.8
20260503003730 70 33 0.0 3.0 0.00 0.00 0.00 37 1013.9
20260503003233 70 327 0.0 3.0 0.00 0.00 0.00 37 1013.9
20260503002729 69 330 1.0 4.0 0.00 0.00 0.00 39 1014.0
20260503002229 70 290 1.0 4.0 0.00 0.00 0.00 48 1013.8
20260503001730 70 148 0.0 1.0 0.00 0.00 0.00 45 1013.9
20260503000728 69 79 0.0 2.0 0.00 0.00 0.00 42 1013.9
20260503000229 70 97 0.0 1.0 0.00 0.00 0.00 43 1014.0
20260502235729 69 97 0.0 1.0 0.00 0.00 0.00 38 1014.0
20260502233730 70 67 1.0 4.0 0.00 0.00 0.00 43 1014.2
20260502233229 71 68 0.0 1.0 0.00 0.00 0.00 39 1014.3
20260502232730 71 110 0.0 1.0 0.00 0.00 0.00 37 1014.3
20260502231729 71 219 1.0 3.0 0.00 0.00 0.00 37 1014.5
20260502231229 71 201 1.0 3.0 0.00 0.00 0.00 37 1014.6
20260502230732 72 219 0.0 2.0 0.00 0.00 0.00 39 1014.8
20260502230237 72 165 1.0 2.0 0.00 0.00 0.00 37 1014.8
20260502225733 73 234 1.0 3.0 0.00 0.00 0.00 35 1014.8
20260502225233 73 219 1.0 3.0 0.00 0.00 0.00 34 1014.8
20260502224733 74 231 1.0 2.0 0.00 0.00 0.00 32 1014.9
20260502224233 74 331 1.0 3.0 0.00 0.00 0.00 30 1014.9
20260502223736 74 15 1.0 4.0 0.00 0.00 0.00 32 1014.9
20260502223233 76 320 1.0 4.0 0.00 0.00 0.00 27 1014.9
20260502222233 77 305 1.0 4.0 0.00 0.00 0.00 29 1015.1
20260502221731 76 265 1.0 3.0 0.00 0.00 0.00 33 1015.1
20260502221229 76 234 1.0 3.0 0.00 0.00 0.00 29 1015.1
20260502220729 76 300 1.0 4.0 0.00 0.00 0.00 30 1015.1
20260502220229 75 259 1.0 4.0 0.00 0.00 0.00 32 1015.1
20260502215229 75 321 2.0 5.0 0.00 0.00 0.00 29 1015.1
20260502214731 74 317 2.0 5.0 0.00 0.00 0.00 28 1015.1
20260502213730 74 48 2.0 6.0 0.00 0.00 0.00 28 1015.4
20260502212730 74 65 2.0 5.0 0.00 0.00 0.00 32 1015.4
20260502211729 74 324 1.0 4.0 0.00 0.00 0.00 28 1015.4
20260502211230 75 47 1.0 5.0 0.00 0.00 0.00 31 1015.4
20260502210729 74 152 1.0 5.0 0.00 0.00 0.00 31 1015.6
20260502210229 73 117 2.0 6.0 0.00 0.00 0.00 31 1015.7
20260502205729 74 308 2.0 6.0 0.00 0.00 0.00 27 1015.9
20260502205229 75 200 1.0 4.0 0.00 0.00 0.00 28 1015.9
20260502204730 74 211 2.0 5.0 0.00 0.00 0.00 31 1016.0
20260502204229 74 211 2.0 5.0 0.00 0.00 0.00 30 1016.1
20260502203729 74 182 1.0 4.0 0.00 0.00 0.00 31 1016.2
20260502203228 74 277 1.0 7.0 0.00 0.00 0.00 30 1016.2
20260502202729 73 327 1.0 7.0 0.00 0.00 0.00 31 1016.3
20260502202229 73 339 1.0 3.0 0.00 0.00 0.00 35 1016.4
20260502201730 74 173 1.0 5.0 0.00 0.00 0.00 38 1016.4
20260502201230 74 39 1.0 5.0 0.00 0.00 0.00 32 1016.5
20260502200729 74 221 1.0 7.0 0.00 0.00 0.00 32 1016.5
20260502200229 72 212 1.0 7.0 0.00 0.00 0.00 37 1016.5
20260502195728 73 78 1.0 3.0 0.00 0.00 0.00 35 1016.7
20260502195229 73 27 1.0 3.0 0.00 0.00 0.00 35 1016.8
20260502194730 72 117 1.0 2.0 0.00 0.00 0.00 35 1016.8
20260502194232 72 317 2.0 6.0 0.00 0.00 0.00 35 1016.9
20260502193729 70 59 3.0 6.0 0.00 0.00 0.00 35 1016.9
20260502193229 70 55 2.0 5.0 0.00 0.00 0.00 36 1017.1
20260502192729 71 55 1.0 4.0 0.00 0.00 0.00 32 1017.1
20260502192230 71 274 1.0 4.0 0.00 0.00 0.00 34 1017.3
20260502191729 71 254 2.0 3.0 0.00 0.00 0.00 36 1017.3
20260502190729 71 272 1.0 3.0 0.00 0.00 0.00 36 1017.4
20260502190229 70 281 1.0 3.0 0.00 0.00 0.00 37 1017.4
20260502185729 70 213 1.0 4.0 0.00 0.00 0.00 37 1017.5
20260502183729 69 321 1.0 5.0 0.00 0.00 0.00 38 1017.6
20260502183230 69 265 1.0 5.0 0.00 0.00 0.00 38 1017.7
20260502182229 68 317 1.0 4.0 0.00 0.00 0.00 41 1017.7
20260502181736 68 350 1.0 4.0 0.00 0.00 0.00 42 1017.8
20260502181233 67 10 2.0 4.0 0.00 0.00 0.00 42 1017.8
20260502180232 66 119 1.0 3.0 0.00 0.00 0.00 41 1018.0
20260502170232 62 290 1.0 3.0 0.00 0.00 0.00 49 1018.5
20260502164234 60 27 0.0 2.0 0.00 0.00 0.00 52 1018.7
20260502163732 60 36 0.0 2.0 0.00 0.00 0.00 53 1018.6
20260502163233 59 33 0.0 2.0 0.00 0.00 0.00 52 1018.6
20260502162732 59 355 1.0 3.0 0.00 0.00 0.00 57 1018.5
20260502162237 58 355 1.0 3.0 0.00 0.00 0.00 54 1018.5
20260502161733 58 94 0.0 3.0 0.00 0.00 0.00 59 1018.7
20260502160732 57 34 0.0 2.0 0.00 0.00 0.00 63 1018.7
20260502160233 56 306 1.0 2.0 0.00 0.00 0.00 65 1018.7
20260502152230 51 73 0.0 1.0 0.00 0.00 0.00 73 1018.6
20260502151729 50 73 0.0 1.0 0.00 0.00 0.00 73 1018.6
20260502151230 50 73 0.0 2.0 0.00 0.00 0.00 73 1018.6
20260502150730 49 73 1.0 2.0 0.00 0.00 0.00 73 1018.6
20260502150228 49 64 0.0 2.0 0.00 0.00 0.00 75 1018.7
20260502130728 41 269 0.0 1.0 0.00 0.00 0.00 87 1018.1
20260502130228 42 269 0.0 1.0 0.00 0.00 0.00 86 1018.0
20260502123723 41 240 0.0 0.0 0.00 0.00 0.00 87 1017.8
20260502122723 42 134 0.0 0.0 0.00 0.00 0.00 90 1017.8
20260502122224 41 133 0.0 0.0 0.00 0.00 0.00 91 1017.7
20260502121722 41 145 0.0 0.0 0.00 0.00 0.00 89 1017.8
20260502121225 41 275 0.0 0.0 0.00 0.00 0.00 90 1017.7
20260502120727 40 275 0.0 0.0 0.00 0.00 0.00 89 1017.8
20260502120226 40 275 0.0 0.0 0.00 0.00 0.00 89 1017.7
20260502115726 41 275 0.0 0.0 0.00 0.00 0.00 87 1017.7
20260502115221 41 275 0.0 0.0 0.00 0.00 0.00 88 1017.8
20260502114722 41 275 0.0 0.0 0.00 0.00 0.00 87 1017.9
20260502114222 42 275 0.0 0.0 0.00 0.00 0.00 86 1017.9
20260502113719 42 275 0.0 0.0 0.00 0.00 0.00 88 1017.8
20260502113219 42 190 0.0 0.0 0.00 0.00 0.00 85 1017.8
20260502112720 42 226 0.0 0.0 0.00 0.00 0.00 86 1017.8
20260502112220 41 226 0.0 0.0 0.00 0.00 0.00 86 1017.7
20260502111718 42 241 0.0 1.0 0.00 0.00 0.00 84 1017.8
20260502111220 43 163 1.0 2.0 0.00 0.00 0.00 85 1017.8
20260502110719 42 103 1.0 2.0 0.00 0.00 0.00 86 1017.8
20260502110219 42 103 0.0 1.0 0.00 0.00 0.00 84 1017.8
20260502105719 41 236 1.0 2.0 0.00 0.00 0.00 86 1017.8
20260502105220 41 279 1.0 2.0 0.00 0.00 0.00 86 1017.7
20260502104719 42 262 0.0 1.0 0.00 0.00 0.00 85 1017.6
20260502104218 43 274 0.0 1.0 0.00 0.00 0.00 82 1017.5
20260502103719 43 137 0.0 0.0 0.00 0.00 0.00 82 1017.5
20260502103220 42 137 0.0 1.0 0.00 0.00 0.00 82 1017.4
20260502102719 43 256 1.0 2.0 0.00 0.00 0.00 83 1017.3
20260502101718 43 212 0.0 1.0 0.00 0.00 0.00 84 1017.3
20260502101219 43 254 0.0 0.0 0.00 0.00 0.00 82 1017.3
20260502100718 44 254 0.0 0.0 0.00 0.00 0.00 84 1017.4
20260502100218 43 252 0.0 0.0 0.00 0.00 0.00 86 1017.3
20260502091210 46 101 0.0 0.0 0.00 0.00 0.00 80 1016.8
20260502090207 46 101 0.0 1.0 0.00 0.00 0.00 81 1017.1
20260502071153 49 112 0.0 1.0 0.00 0.00 0.00 79 1016.8
20260502070147 50 80 0.0 1.0 0.00 0.00 0.00 79 1016.6
20260502065646 50 80 0.0 1.0 0.00 0.00 0.00 78 1016.6
20260502065144 50 80 0.0 1.0 0.00 0.00 0.00 78 1016.5
20260502064142 50 170 0.0 0.0 0.00 0.00 0.00 77 1016.4
20260502063641 50 170 0.0 0.0 0.00 0.00 0.00 75 1016.5
20260502063143 50 170 0.0 0.0 0.00 0.00 0.00 76 1016.4
20260502062639 50 250 0.0 0.0 0.00 0.00 0.00 71 1016.5
20260502060639 51 69 0.0 0.0 0.00 0.00 0.00 74 1016.3
20260502060140 52 69 0.0 1.0 0.00 0.00 0.00 74 1016.3
20260502055638 52 69 0.0 1.0 0.00 0.00 0.00 72 1016.2
20260502055138 53 69 0.0 1.0 0.00 0.00 0.00 74 1016.2
20260502054137 53 109 0.0 1.0 0.00 0.00 0.00 71 1016.1
20260502053635 53 109 0.0 1.0 0.00 0.00 0.00 68 1016.2
20260502052636 54 109 0.0 1.0 0.00 0.00 0.00 61 1016.0
20260502052137 54 223 0.0 0.0 0.00 0.00 0.00 59 1016.0
20260502051635 54 223 0.0 0.0 0.00 0.00 0.00 61 1016.0
20260502051134 55 248 0.0 1.0 0.00 0.00 0.00 58 1015.9
20260502050134 56 267 0.0 1.0 0.00 0.00 0.00 62 1016.0
20260502045133 56 267 0.0 1.0 0.00 0.00 0.00 56 1015.7
20260502044634 56 267 0.0 1.0 0.00 0.00 0.00 55 1015.9
20260502043634 56 267 1.0 2.0 0.00 0.00 0.00 60 1015.9
20260502043134 57 55 1.0 2.0 0.00 0.00 0.00 61 1015.6
20260502042634 58 54 0.0 2.0 0.00 0.00 0.00 61 1015.7
20260502042132 58 82 0.0 2.0 0.00 0.00 0.00 50 1015.6
20260502041632 59 130 0.0 1.0 0.00 0.00 0.00 47 1015.5
20260502040632 60 159 0.0 2.0 0.00 0.00 0.00 46 1015.5
20260502040131 60 245 0.0 1.0 0.00 0.00 0.00 46 1015.4
20260502035629 60 203 0.0 1.0 0.00 0.00 0.00 44 1015.4
20260502035129 60 224 0.0 1.0 0.00 0.00 0.00 44 1015.4
20260502034631 60 210 0.0 1.0 0.00 0.00 0.00 45 1015.4
20260502034129 60 227 0.0 2.0 0.00 0.00 0.00 46 1015.3
20260502033631 61 241 1.0 2.0 0.00 0.00 0.00 46 1015.3
20260502032629 61 115 0.0 1.0 0.00 0.00 0.00 43 1015.1
20260502032129 61 115 0.0 1.0 0.00 0.00 0.00 43 1015.1
20260502031129 62 176 0.0 2.0 0.00 0.00 0.00 47 1015.0
20260502030132 62 178 0.0 1.0 0.00 0.00 0.00 44 1014.9
20260502025130 63 96 0.0 1.0 0.00 0.00 0.00 42 1014.8
20260502024129 64 169 0.0 3.0 0.00 0.00 0.00 45 1014.8
20260502023629 65 204 0.0 2.0 0.00 0.00 0.00 41 1014.6
20260502023130 65 165 1.0 3.0 0.00 0.00 0.00 40 1014.9
20260502022629 66 140 1.0 3.0 0.00 0.00 0.00 37 1014.8
20260502022130 66 136 1.0 3.0 0.00 0.00 0.00 36 1014.6
20260502021629 67 211 0.0 1.0 0.00 0.00 0.00 37 1014.8
20260502021130 67 215 0.0 1.0 0.00 0.00 0.00 37 1014.6